[[{"header":{"parameterUnit":"m.s-1","parameterCategory":1,"la1":30.2992,"la2":30.254,"lo1":-89.0895,"lo2":-89.0443,"dy":0.0025,"dx":0.0025,"nx":19,"ny":19,"refTime":"2026-05-23T09:00:00:Z","depth":0,"parameterNumber":2,"parameterNumberName":"U-component_of_WINDS"},"data":[0,0,0,-2.3537,-2.3538,-2.3568,-2.3568,-2.3604,-2.3604,0,0,0,0,0,0,0,0,0,0,0,-2.3529,-2.3529,-2.3537,-2.3538,-2.3568,-2.3568,-2.3603,-2.3604,0,0,0,0,0,0,0,0,0,0,0,-2.3528,-2.3529,-2.3529,-2.3538,-2.3568,-2.3568,-2.3603,-2.3582,0,0,0,0,0,0,0,0,0,0,-2.3553,-2.3545,-2.3529,-2.3529,-2.3538,-2.3568,-2.3568,-2.358,-2.3583,-2.359,0,-2.3597,0,-2.3601,-2.3606,-2.3606,0,0,0,-2.3538,-2.3543,-2.3551,-2.3529,-2.3539,-2.3568,-2.3554,-2.3582,-2.3585,-2.3593,-2.3597,-2.3599,-2.3602,-2.3606,-2.3607,-2.3649,-2.3649,0,0,-2.3536,-2.3533,-2.3549,-2.3553,-2.355,-2.3553,-2.3555,-2.3584,-2.3588,-2.3597,-2.3599,-2.3602,-2.3607,-2.3607,-2.3649,-2.3649,0,0,0,-2.3532,-2.3532,-2.354,-2.3552,-2.3557,-2.3554,-2.3556,-2.3586,-2.3589,-2.36,-2.3603,-2.3607,-2.3607,-2.3649,-2.3649,-2.3656,0,0,0,-2.3531,-2.353,-2.3539,-2.3538,-2.3557,-2.3572,-2.3559,-2.3587,-2.359,-2.3602,-2.3607,-2.3608,-2.3648,-2.3649,-2.3656,-2.366,0,0,0,-2.3527,-2.3529,-2.3534,-2.3538,-2.355,-2.3572,-2.3576,-2.3588,-2.3592,-2.3606,-2.3608,-2.3648,-2.3649,-2.3655,-2.3659,-2.3669,0,0,0,-2.3521,-2.354,-2.3534,-2.3556,-2.355,-2.3577,-2.3576,-2.3596,-2.3609,-2.3607,-2.3648,-2.3649,-2.3655,-2.3658,-2.3669,-2.3677,-2.3681,0,0,-2.3543,-2.3542,-2.3555,-2.3551,-2.3578,-2.3573,-2.3601,-2.3615,-2.3619,-2.3638,-2.3639,-2.3656,-2.3659,-2.3669,-2.3704,-2.3707,0,0,0,-2.3561,-2.357,-2.3578,-2.3591,-2.3604,-2.3614,-2.3624,-2.3629,-2.3647,-2.3629,-2.3663,-2.3665,-2.3671,-2.3675,-2.3678,-2.3683,-2.3651,-2.3651,-2.3651,-2.3586,-2.3591,-2.3613,-2.3621,-2.3633,-2.3644,-2.3655,-2.3663,-2.3663,-2.3672,-2.3677,-2.3698,-2.3702,-2.3704,-2.371,-2.3683,-2.3683,-2.3683,-2.3683,-2.3618,-2.3631,-2.3632,-2.3653,-2.3657,-2.3675,-2.3686,-2.3685,-2.3701,-2.3694,-2.37,-2.369,-2.3707,-2.3712,-2.3684,-2.3683,-2.3683,-2.3683,-2.3683,-2.3634,-2.3641,-2.3648,-2.3667,-2.3682,-2.3689,-2.3705,-2.3708,-2.3711,-2.3717,-2.3722,-2.3722,-2.3721,-2.372,-2.372,-2.372,-2.372,-2.372,-2.372,-2.3647,-2.3655,-2.3668,-2.3683,-2.3692,-2.3704,-2.3716,-2.3724,-2.3734,-2.3735,-2.3735,-2.3733,-2.3709,-2.3702,-2.3721,-2.3721,-2.3721,-2.3721,-2.3721,-2.3674,-2.3669,-2.3689,-2.3698,-2.3716,-2.373,-2.3735,-2.3751,-2.3759,-2.3766,-2.3764,-2.3746,-2.3745,-2.3743,-2.3737,-2.3764,-2.3764,-2.3764,-2.3764,-2.3686,-2.3687,-2.3708,-2.3723,-2.3737,-2.3744,-2.3765,-2.3775,-2.3783,-2.3788,-2.3785,-2.3778,-2.3776,-2.3776,-2.3773,-2.3767,-2.3802,-2.3802,-2.3802,-2.3703,-2.3705,-2.3723,-2.3733,-2.3747,-2.3759,-2.3779,-2.3794,-2.3803,-2.3803,-2.3791,-2.379,-2.3778,-2.3775,-2.3773,-2.3769,-2.3758,0,0]},{"header":{"parameterUnit":"m.s-1","parameterCategory":1,"la1":30.2992,"la2":30.254,"lo1":-89.0895,"lo2":-89.0443,"dy":0.0025,"dx":0.0025,"nx":19,"ny":19,"refTime":"2026-05-23T09:00:00:Z","depth":0,"parameterNumber":3,"parameterNumberName":"V-component_of_WINDS"},"data":[0,0,0,1.8444,1.8443,1.8382,1.8382,1.8301,1.83,0,0,0,0,0,0,0,0,0,0,0,1.8463,1.8462,1.8444,1.8442,1.8382,1.8382,1.8301,1.83,0,0,0,0,0,0,0,0,0,0,0,1.8463,1.8462,1.8462,1.8442,1.8382,1.8382,1.8301,1.8347,0,0,0,0,0,0,0,0,0,0,1.8406,1.8425,1.8463,1.8462,1.8442,1.8382,1.8382,1.8349,1.8344,1.8328,0,1.8317,0,1.8307,1.8295,1.8294,0,0,0,1.844,1.843,1.8413,1.8462,1.8441,1.8382,1.8409,1.8346,1.8341,1.8321,1.8315,1.8312,1.8306,1.8294,1.8294,1.8217,1.8216,0,0,1.8443,1.8451,1.8417,1.841,1.8423,1.8411,1.8407,1.8343,1.8336,1.8315,1.831,1.8305,1.8294,1.8293,1.8217,1.8216,0,0,0,1.8455,1.8454,1.8439,1.8413,1.8403,1.8409,1.8405,1.8339,1.8333,1.831,1.8304,1.8293,1.8292,1.8217,1.8217,1.8214,0,0,0,1.8457,1.846,1.844,1.8444,1.8404,1.8371,1.8402,1.8338,1.833,1.8304,1.8293,1.8291,1.8217,1.8217,1.8214,1.821,0,0,0,1.8466,1.8461,1.8454,1.8445,1.842,1.8371,1.8362,1.8336,1.8327,1.8294,1.8291,1.8218,1.8217,1.8215,1.8211,1.8193,0,0,0,1.8477,1.8448,1.8454,1.8419,1.842,1.8372,1.8363,1.8325,1.8297,1.8293,1.8217,1.8217,1.8215,1.8211,1.8194,1.8179,1.8175,0,0,1.8445,1.8445,1.8424,1.8427,1.838,1.838,1.8331,1.8295,1.8282,1.8238,1.8236,1.8214,1.8211,1.8193,1.8145,1.8141,0,0,0,1.8416,1.8401,1.8387,1.8363,1.8339,1.8316,1.8289,1.8276,1.8239,1.8263,1.8203,1.82,1.819,1.8182,1.8179,1.8169,1.8214,1.8214,1.8214,1.8378,1.8369,1.8333,1.8317,1.8294,1.8268,1.8247,1.8225,1.8217,1.8204,1.819,1.8162,1.8154,1.8152,1.8142,1.8182,1.8182,1.8182,1.8182,1.8329,1.8307,1.8304,1.8268,1.8257,1.8226,1.8199,1.8196,1.8164,1.8171,1.8161,1.8169,1.8148,1.8139,1.8181,1.8181,1.8182,1.8182,1.8182,1.8303,1.8291,1.828,1.8247,1.8221,1.8204,1.8176,1.8165,1.8154,1.8145,1.813,1.813,1.8128,1.8139,1.8139,1.8139,1.8139,1.8138,1.8138,1.8281,1.8268,1.8247,1.8222,1.8207,1.8185,1.8161,1.8144,1.8123,1.8117,1.8117,1.8112,1.8149,1.8159,1.8137,1.8137,1.8137,1.8137,1.8138,1.8234,1.8244,1.8211,1.8197,1.8167,1.8144,1.8133,1.8101,1.8086,1.8072,1.8069,1.8099,1.8096,1.8099,1.8106,1.8072,1.8072,1.8072,1.8072,1.8211,1.8211,1.8177,1.8155,1.8132,1.812,1.8082,1.8063,1.8044,1.8033,1.8037,1.8047,1.805,1.8045,1.8049,1.8056,1.8009,1.8009,1.8009,1.8182,1.818,1.815,1.8137,1.8114,1.8093,1.8058,1.803,1.801,1.8007,1.8025,1.8028,1.8043,1.8049,1.8044,1.805,1.8062,0,0]}]]